IRIDIUM 33 DEB, 34091

Orbit data source: Space-Track

IRIDIUM 33 DEB, 34091 is space debris in LEO originally from a launch on Sun, 14 Sep 1997 UTC launched from the Tyuratam Missile And Space Complex (TTMTR). The debris from Iridium 33, an American commercial communications satellite, has been tracked extensively since its accidental collision with the defunct Russian satellite Cosmos 2251 in 2009. This event, occurring at high speed in low Earth orbit (LEO), generated thousands of pieces of space debris, significantly increasing the risk of further collisions. The Iridium 33 debris cloud has impacted space traffic management and orbital debris mitigation strategies, making it a subject of ongoing study in space situational awareness.

Loading next visibility...
Identifier
34091, 1997-051DA
Orbit
LEO
Country
Flag of USUS
Related business
Manufacturer
Unknown
Mission
Spacecraft
Bus & Motor
Unknown
Mass
Unknown
Launch date (UTC)
1997-09-14 (28 years ago)
Launch vehicle
Unknown
Launch site
Tyuratam Missile And Space Complex (TTMTR)
Object type
Payload
Rocket body
Debris
Shape & HBR
Unknown shape, 0.1 m
Radar Cross Section
Small (<0.1 m²)

Expand to show TLE details & history
Last TLE update: 16 hours ago

TLE from 16 hours ago
0 IRIDIUM 33 DEB
1 34091U 97051DA  25352.17832608  .00029931  00000-0  37026-2 0  9995
2 34091  86.3422  64.3429 0033805 273.6022  86.1335 14.82216070879475
Epoch: 2025-12-18T04:16Z
TLE epoch observation values (Epoch: 2025-12-18T04:16:47.373Z)
Latitude
0.00005°
Longitude
-86.89205°
Altitude
623.939 km
Speed
7.547 km/s
True Right ascension
04h 17m 22s
True Declination
0° 00' 00"
Sunlit
Object was in full shadow at epoch
Visualization orbit readout
Latitude
Unknown
Longitude
Unknown
Altitude
Unknown
Speed
Unknown
Apparent Right ascension
Unknown
Apparent Declination
Unknown
Sunlit
N/A
Visualization observer readout
Local Sidereal Time
19:21:36
Azimuth
Unknown
Elevation
Unknown
Doppler factor
Unknown
Orbital elements
Apogee altitude
642.89 km
Perigee altitude
595.581 km
Semi-major axis
6,997.373 km
Eccentricity
0.00338
Inclination
86.3422°
RAAN
64.3429°
Arg. of periapsis
273.6022°
True anomaly
86.5201°
Mean anomaly
86.1335°
Eccentric anomaly
86.32679°
Mean motion
3.70801 °/min
Orbital period
97.09 mins
BSTAR
0.0037026
Loading maneuver chart data...
Computing Atmospheric mass density...

Documentation

Showing up to 5 results
|